Location: York
(31.8935°S, 116.7682°E)
Time: 03:00:58
(UTC+08:00)

DX 1 - Pass Details

Date: 02 August 2021
Orbit: 618 x 631 km, 98.4° (Epoch: 23 September)

Event Time Altitude Azimuth Distance (km) Brightness Sun altitude
Rises 17:57:21 0° 58° (ENE) 2,898 ? -4.8°
Reaches altitude 10° 18:00:37 10° 85° (E) 2,000 ? -5.4°
Maximum altitude 18:02:38 13° 113° (ESE) 1,804 ? -5.8°
Drops below altitude 10° 18:04:39 10° 141° (SE) 2,009 ? -6.2°
Sets 18:07:56 0° 168° (SSE) 2,925 ? -6.9°
